| time (UTC) | temp C | wind direction | speed KPH | gust KPH | rain 1hr cm | rain 24hr cm | rain mn cm | humidity % | barometer mb |
| 20260510230311 | 25 | 183 | 1.6 | 1.6 | 0.00 | 0.00 | 0.00 | 78 | 1016.4 |
| 20260510225808 | 25 | 190 | 0.0 | 0.0 | 0.00 | 0.00 | 0.00 | 79 | 1016.3 |
| 20260510225306 | 25 | 204 | 3.2 | 6.4 | 0.00 | 0.00 | 0.00 | 77 | 1016.5 |
| 20260510224800 | 25 | 209 | 3.2 | 4.8 | 0.00 | 0.00 | 0.00 | 77 | 1016.5 |
| 20260510224256 | 25 | 187 | 0.0 | 1.6 | 0.00 | 0.00 | 0.00 | 78 | 1016.4 |
| 20260510223754 | 25 | 222 | 3.2 | 4.8 | 0.00 | 0.00 | 0.00 | 76 | 1016.4 |
| 20260510223251 | 25 | 201 | 1.6 | 1.6 | 0.00 | 0.00 | 0.00 | 76 | 1016.3 |
| 20260510222748 | 25 | 200 | 3.2 | 4.8 | 0.00 | 0.00 | 0.00 | 76 | 1016.4 |
| 20260510222245 | 25 | 209 | 4.8 | 9.7 | 0.00 | 0.00 | 0.00 | 76 | 1016.4 |
| 20260510221740 | 26 | 211 | 4.8 | 9.7 | 0.00 | 0.00 | 0.00 | 75 | 1016.4 |
| 20260510221237 | 25 | 191 | 4.8 | 6.4 | 0.00 | 0.00 | 0.00 | 75 | 1016.5 |
| 20260510220734 | 25 | 221 | 3.2 | 3.2 | 0.00 | 0.00 | 0.00 | 75 | 1016.4 |
| 20260510220229 | 25 | 189 | 1.6 | 1.6 | 0.00 | 0.00 | 0.00 | 76 | 1016.3 |
| 20260510215726 | 25 | 211 | 3.2 | 6.4 | 0.00 | 0.00 | 0.00 | 76 | 1016.1 |
| 20260510215224 | 25 | 281 | 4.8 | 6.4 | 0.00 | 0.00 | 0.00 | 76 | 1016.1 |
| 20260510214721 | 26 | 189 | 3.2 | 4.8 | 0.00 | 0.00 | 0.00 | 75 | 1016.1 |
| 20260510214218 | 26 | 188 | 0.0 | 0.0 | 0.00 | 0.00 | 0.00 | 75 | 1016.3 |
| 20260510213715 | 26 | 206 | 3.2 | 4.8 | 0.00 | 0.00 | 0.00 | 73 | 1016.1 |
| 20260510213211 | 26 | 191 | 0.0 | 0.0 | 0.00 | 0.00 | 0.00 | 74 | 1016.1 |
| 20260510212707 | 26 | 246 | 3.2 | 4.8 | 0.00 | 0.00 | 0.00 | 74 | 1016.2 |
| 20260510212205 | 26 | 161 | 1.6 | 1.6 | 0.00 | 0.00 | 0.00 | 74 | 1016.2 |
| 20260510211702 | 25 | 204 | 0.0 | 1.6 | 0.00 | 0.00 | 0.00 | 77 | 1016.0 |
| 20260510211156 | 25 | 172 | 1.6 | 3.2 | 0.00 | 0.00 | 0.00 | 75 | 1016.2 |
| 20260510210653 | 25 | 216 | 3.2 | 4.8 | 0.00 | 0.00 | 0.00 | 74 | 1016.2 |
| 20260510210148 | 26 | 191 | 3.2 | 3.2 | 0.00 | 0.00 | 0.00 | 74 | 1016.2 |
| 20260510205648 | 26 | 238 | 3.2 | 3.2 | 0.00 | 0.00 | 0.00 | 74 | 1016.2 |
| 20260510205144 | 26 | 216 | 4.8 | 4.8 | 0.00 | 0.00 | 0.00 | 74 | 1016.3 |
| 20260510204640 | 26 | 236 | 4.8 | 6.4 | 0.00 | 0.00 | 0.00 | 71 | 1016.4 |
| 20260510204137 | 26 | 180 | 0.0 | 1.6 | 0.00 | 0.00 | 0.00 | 70 | 1016.1 |
| 20260510203634 | 27 | 150 | 3.2 | 3.2 | 0.00 | 0.00 | 0.00 | 67 | 1016.1 |
| 20260510203131 | 27 | 176 | 0.0 | 0.0 | 0.00 | 0.00 | 0.00 | 70 | 1016.1 |
| 20260510202630 | 27 | 181 | 4.8 | 6.4 | 0.00 | 0.00 | 0.00 | 67 | 1016.2 |
| 20260510202126 | 27 | 163 | 1.6 | 3.2 | 0.00 | 0.00 | 0.00 | 68 | 1016.3 |
| 20260510201624 | 27 | 110 | 3.2 | 3.2 | 0.00 | 0.00 | 0.00 | 66 | 1016.3 |
| 20260510201120 | 27 | 167 | 1.6 | 3.2 | 0.00 | 0.00 | 0.00 | 67 | 1016.2 |
| 20260510200616 | 27 | 180 | 1.6 | 1.6 | 0.00 | 0.00 | 0.00 | 71 | 1016.2 |
| 20260510200114 | 26 | 205 | 1.6 | 1.6 | 0.00 | 0.00 | 0.00 | 70 | 1016.2 |
| 20260510195612 | 26 | 219 | 3.2 | 3.2 | 0.00 | 0.00 | 0.00 | 68 | 1016.3 |
| 20260510195108 | 26 | 146 | 4.8 | 9.7 | 0.00 | 0.00 | 0.00 | 70 | 1016.4 |
| 20260510194607 | 27 | 223 | 6.4 | 6.4 | 0.00 | 0.00 | 0.00 | 68 | 1016.2 |
| 20260510194104 | 27 | 196 | 4.8 | 4.8 | 0.00 | 0.00 | 0.00 | 68 | 1016.4 |
| 20260510193604 | 27 | 191 | 4.8 | 6.4 | 0.00 | 0.00 | 0.00 | 69 | 1016.3 |
| 20260510193100 | 26 | 214 | 3.2 | 3.2 | 0.00 | 0.00 | 0.00 | 70 | 1016.4 |
| 20260510192555 | 27 | 216 | 4.8 | 6.4 | 0.00 | 0.00 | 0.00 | 69 | 1016.5 |
| 20260510192051 | 26 | 177 | 1.6 | 1.6 | 0.00 | 0.00 | 0.00 | 69 | 1016.5 |
| 20260510191548 | 27 | 180 | 4.8 | 6.4 | 0.00 | 0.00 | 0.00 | 68 | 1016.9 |
| 20260510191045 | 27 | 169 | 1.6 | 1.6 | 0.00 | 0.00 | 0.00 | 68 | 1016.5 |
| 20260510190542 | 26 | 201 | 3.2 | 9.7 | 0.00 | 0.00 | 0.00 | 69 | 1016.6 |
| 20260510190040 | 27 | 240 | 4.8 | 9.7 | 0.00 | 0.00 | 0.00 | 68 | 1016.6 |
| 20260510185536 | 27 | 223 | 3.2 | 4.8 | 0.00 | 0.00 | 0.00 | 70 | 1016.9 |
| 20260510185034 | 27 | 222 | 3.2 | 4.8 | 0.00 | 0.00 | 0.00 | 68 | 1016.9 |
| 20260510184531 | 27 | 170 | 1.6 | 1.6 | 0.00 | 0.00 | 0.00 | 68 | 1016.8 |
| 20260510184026 | 27 | 195 | 1.6 | 1.6 | 0.00 | 0.00 | 0.00 | 70 | 1016.9 |
| 20260510183522 | 26 | 212 | 4.8 | 6.4 | 0.00 | 0.00 | 0.00 | 71 | 1017.0 |
| 20260510183017 | 26 | 197 | 3.2 | 3.2 | 0.00 | 0.00 | 0.00 | 72 | 1017.2 |
| 20260510182515 | 27 | 238 | 3.2 | 4.8 | 0.00 | 0.00 | 0.00 | 72 | 1017.1 |
| 20260510182014 | 27 | 206 | 1.6 | 3.2 | 0.00 | 0.00 | 0.00 | 73 | 1017.1 |
| 20260510181513 | 27 | 197 | 1.6 | 3.2 | 0.00 | 0.00 | 0.00 | 74 | 1017.1 |
| 20260510181009 | 26 | 214 | 3.2 | 4.8 | 0.00 | 0.00 | 0.00 | 75 | 1017.2 |
| 20260510180506 | 26 | 106 | 3.2 | 3.2 | 0.00 | 0.00 | 0.00 | 73 | 1017.2 |
| 20260510180004 | 26 | 162 | 3.2 | 3.2 | 0.00 | 0.00 | 0.00 | 72 | 1017.2 |
| 20260510175458 | 26 | 216 | 4.8 | 6.4 | 0.00 | 0.00 | 0.00 | 70 | 1017.2 |
| 20260510174954 | 26 | 165 | 3.2 | 11.3 | 0.00 | 0.00 | 0.00 | 69 | 1017.5 |
| 20260510174453 | 27 | 217 | 3.2 | 6.4 | 0.00 | 0.00 | 0.00 | 68 | 1017.1 |
| 20260510173949 | 27 | 91 | 4.8 | 6.4 | 0.00 | 0.00 | 0.00 | 67 | 1017.3 |
| 20260510173445 | 27 | 153 | 4.8 | 6.4 | 0.00 | 0.00 | 0.00 | 68 | 1017.1 |
| 20260510172942 | 27 | 102 | 3.2 | 4.8 | 0.00 | 0.00 | 0.00 | 68 | 1017.4 |
| 20260510172437 | 27 | 166 | 3.2 | 4.8 | 0.00 | 0.00 | 0.00 | 67 | 1017.3 |
| 20260510171934 | 26 | 111 | 3.2 | 4.8 | 0.00 | 0.00 | 0.00 | 68 | 1017.1 |
| 20260510171431 | 27 | 174 | 3.2 | 4.8 | 0.00 | 0.00 | 0.00 | 65 | 1017.3 |
| 20260510170928 | 27 | 193 | 4.8 | 4.8 | 0.00 | 0.00 | 0.00 | 67 | 1017.4 |
| 20260510170424 | 26 | 159 | 0.0 | 1.6 | 0.00 | 0.00 | 0.00 | 66 | 1017.4 |
| 20260510165920 | 26 | 177 | 4.8 | 4.8 | 0.00 | 0.00 | 0.00 | 68 | 1017.5 |
| 20260510165416 | 27 | 109 | 1.6 | 3.2 | 0.00 | 0.00 | 0.00 | 68 | 1017.8 |
| 20260510164913 | 27 | 116 | 1.6 | 1.6 | 0.00 | 0.00 | 0.00 | 70 | 1017.7 |
| 20260510164411 | 26 | 142 | 0.0 | 1.6 | 0.00 | 0.00 | 0.00 | 71 | 1017.6 |
| 20260510163910 | 26 | 120 | 0.0 | 1.6 | 0.00 | 0.00 | 0.00 | 70 | 1017.5 |
| 20260510163402 | 26 | 153 | 1.6 | 1.6 | 0.00 | 0.00 | 0.00 | 69 | 1017.4 |
| 20260510162901 | 26 | 96 | 4.8 | 9.7 | 0.00 | 0.00 | 0.00 | 69 | 1017.5 |
| 20260510162359 | 26 | 168 | 1.6 | 1.6 | 0.00 | 0.00 | 0.00 | 71 | 1017.3 |
| 20260510161854 | 27 | 67 | 1.6 | 3.2 | 0.00 | 0.00 | 0.00 | 70 | 1017.5 |
| 20260510161350 | 26 | 171 | 1.6 | 1.6 | 0.00 | 0.00 | 0.00 | 72 | 1017.5 |
| 20260510160848 | 26 | 129 | 1.6 | 3.2 | 0.00 | 0.00 | 0.00 | 70 | 1017.3 |
| 20260510160345 | 26 | 123 | 1.6 | 1.6 | 0.00 | 0.00 | 0.00 | 72 | 1017.4 |
| 20260510155838 | 26 | 134 | 0.0 | 1.6 | 0.00 | 0.00 | 0.00 | 73 | 1017.4 |
| 20260510155336 | 26 | 127 | 1.6 | 3.2 | 0.00 | 0.00 | 0.00 | 71 | 1017.5 |
| 20260510154831 | 26 | 175 | 1.6 | 3.2 | 0.00 | 0.00 | 0.00 | 71 | 1017.4 |
| 20260510154327 | 26 | 101 | 3.2 | 4.8 | 0.00 | 0.00 | 0.00 | 72 | 1017.7 |
| 20260510153827 | 26 | 94 | 1.6 | 1.6 | 0.00 | 0.00 | 0.00 | 73 | 1017.5 |
| 20260510153324 | 25 | 124 | 1.6 | 1.6 | 0.00 | 0.00 | 0.00 | 73 | 1017.6 |
| 20260510152821 | 25 | 80 | 1.6 | 3.2 | 0.00 | 0.00 | 0.00 | 74 | 1017.8 |
| 20260510152318 | 25 | 149 | 1.6 | 1.6 | 0.00 | 0.00 | 0.00 | 76 | 1017.8 |
| 20260510151814 | 25 | 99 | 3.2 | 3.2 | 0.00 | 0.00 | 0.00 | 75 | 1017.5 |
| 20260510151312 | 25 | 96 | 1.6 | 1.6 | 0.00 | 0.00 | 0.00 | 75 | 1017.7 |
| 20260510150808 | 25 | 134 | 1.6 | 1.6 | 0.00 | 0.00 | 0.00 | 76 | 1017.7 |
| 20260510150303 | 25 | 168 | 3.2 | 3.2 | 0.00 | 0.00 | 0.00 | 77 | 1017.6 |
| 20260510145759 | 25 | 102 | 1.6 | 1.6 | 0.00 | 0.00 | 0.00 | 78 | 1017.6 |
| 20260510145257 | 25 | 129 | 3.2 | 3.2 | 0.00 | 0.00 | 0.00 | 77 | 1017.7 |
| 20260510144753 | 25 | 133 | 1.6 | 1.6 | 0.00 | 0.00 | 0.00 | 79 | 1017.7 |
| 20260510144250 | 24 | 145 | 1.6 | 1.6 | 0.00 | 0.00 | 0.00 | 81 | 1018.0 |
| 20260510143749 | 23 | 168 | 0.0 | 1.6 | 0.00 | 0.00 | 0.00 | 81 | 1018.0 |
| 20260510143246 | 23 | 150 | 0.0 | 1.6 | 0.00 | 0.00 | 0.00 | 80 | 1017.7 |
| 20260510142742 | 24 | 132 | 3.2 | 3.2 | 0.00 | 0.00 | 0.00 | 80 | 1017.8 |
| 20260510142239 | 24 | 112 | 1.6 | 1.6 | 0.00 | 0.00 | 0.00 | 80 | 1017.8 |
| 20260510141736 | 23 | 91 | 1.6 | 1.6 | 0.00 | 0.00 | 0.00 | 81 | 1017.6 |
| 20260510141235 | 23 | 154 | 3.2 | 3.2 | 0.00 | 0.00 | 0.00 | 83 | 1017.6 |
| 20260510140731 | 23 | 146 | 1.6 | 1.6 | 0.00 | 0.00 | 0.00 | 83 | 1017.6 |
| 20260510140226 | 23 | 137 | 1.6 | 1.6 | 0.00 | 0.00 | 0.00 | 83 | 1017.6 |
| 20260510135720 | 23 | 129 | 1.6 | 1.6 | 0.00 | 0.00 | 0.00 | 84 | 1017.7 |
| 20260510135216 | 22 | 147 | 0.0 | 0.0 | 0.00 | 0.00 | 0.00 | 86 | 1017.5 |
| 20260510134714 | 22 | 125 | 0.0 | 1.6 | 0.00 | 0.00 | 0.00 | 86 | 1017.5 |
| 20260510134211 | 22 | 124 | 1.6 | 1.6 | 0.00 | 0.00 | 0.00 | 87 | 1017.3 |
| 20260510133706 | 22 | 119 | 1.6 | 1.6 | 0.00 | 0.00 | 0.00 | 87 | 1017.3 |
| 20260510133202 | 22 | 66 | 4.8 | 9.7 | 0.00 | 0.00 | 0.00 | 87 | 1017.3 |
| 20260510132659 | 22 | 103 | 1.6 | 3.2 | 0.00 | 0.00 | 0.00 | 88 | 1017.3 |
| 20260510132156 | 22 | 137 | 1.6 | 1.6 | 0.00 | 0.00 | 0.00 | 88 | 1017.3 |
| 20260510131654 | 22 | 143 | 1.6 | 1.6 | 0.00 | 0.00 | 0.00 | 87 | 1017.4 |
| 20260510131151 | 22 | 80 | 4.8 | 6.4 | 0.00 | 0.00 | 0.00 | 89 | 1017.3 |
| 20260510130647 | 22 | 149 | 0.0 | 0.0 | 0.00 | 0.00 | 0.00 | 90 | 1017.4 |
| 20260510130144 | 21 | 151 | 0.0 | 0.0 | 0.00 | 0.00 | 0.00 | 91 | 1017.2 |
| 20260510125640 | 21 | 146 | 0.0 | 0.0 | 0.00 | 0.00 | 0.00 | 92 | 1017.0 |
| 20260510125137 | 21 | 161 | 0.0 | 0.0 | 0.00 | 0.00 | 0.00 | 93 | 1017.0 |
| 20260510124634 | 21 | 153 | 0.0 | 1.6 | 0.00 | 0.00 | 0.00 | 93 | 1016.9 |
| 20260510124131 | 21 | 146 | 0.0 | 1.6 | 0.00 | 0.00 | 0.00 | 93 | 1017.0 |
| 20260510123626 | 21 | 153 | 0.0 | 0.0 | 0.00 | 0.00 | 0.00 | 95 | 1016.9 |
| 20260510123122 | 21 | 154 | 0.0 | 0.0 | 0.00 | 0.00 | 0.00 | 96 | 1016.7 |
| 20260510122619 | 21 | 165 | 0.0 | 0.0 | 0.00 | 0.00 | 0.00 | 97 | 1016.6 |
| 20260510122114 | 21 | 162 | 0.0 | 0.0 | 0.00 | 0.00 | 0.00 | 97 | 1016.5 |
| 20260510121612 | 20 | 99 | 3.2 | 3.2 | 0.00 | 0.00 | 0.00 | 98 | 1016.4 |
| 20260510121109 | 20 | 157 | 0.0 | 0.0 | 0.00 | 0.00 | 0.00 | 98 | 1016.4 |
| 20260510120607 | 20 | 159 | 0.0 | 0.0 | 0.00 | 0.00 | 0.00 | 98 | 1016.2 |
| 20260510115559 | 20 | 164 | 0.0 | 0.0 | 0.00 | 0.00 | 0.00 | 98 | 1016.1 |
| 20260510115056 | 20 | 165 | 0.0 | 0.0 | 0.00 | 0.00 | 0.00 | 98 | 1016.2 |
| 20260510114551 | 20 | 167 | 0.0 | 0.0 | 0.00 | 0.00 | 0.00 | 98 | 1016.1 |
| 20260510114048 | 20 | 173 | 0.0 | 0.0 | 0.00 | 0.00 | 0.00 | 98 | 1016.1 |
| 20260510113543 | 20 | 175 | 0.0 | 0.0 | 0.00 | 0.00 | 0.00 | 98 | 1016.3 |
| 20260510113041 | 20 | 175 | 0.0 | 0.0 | 0.00 | 0.00 | 0.00 | 98 | 1016.1 |
| 20260510112537 | 20 | 175 | 0.0 | 0.0 | 0.00 | 0.00 | 0.00 | 98 | 1015.8 |
| 20260510112034 | 19 | 175 | 0.0 | 0.0 | 0.00 | 0.00 | 0.00 | 98 | 1015.8 |
| 20260510111531 | 19 | 175 | 0.0 | 0.0 | 0.00 | 0.00 | 0.00 | 98 | 1015.7 |
| 20260510111027 | 19 | 175 | 0.0 | 0.0 | 0.00 | 0.00 | 0.00 | 98 | 1015.7 |
| 20260510110523 | 19 | 175 | 0.0 | 0.0 | 0.00 | 0.00 | 0.00 | 97 | 1015.4 |
| 20260510110019 | 19 | 175 | 0.0 | 0.0 | 0.00 | 0.00 | 0.00 | 98 | 1015.4 |
| 20260510105514 | 19 | 175 | 0.0 | 0.0 | 0.00 | 0.00 | 0.00 | 97 | 1015.2 |
| 20260510105010 | 19 | 175 | 0.0 | 0.0 | 0.00 | 0.00 | 0.00 | 97 | 1015.2 |
| 20260510104507 | 19 | 175 | 0.0 | 0.0 | 0.00 | 0.00 | 0.00 | 97 | 1015.1 |
| 20260510104003 | 19 | 175 | 0.0 | 0.0 | 0.00 | 0.00 | 0.00 | 97 | 1015.3 |
| 20260510103500 | 19 | 175 | 0.0 | 0.0 | 0.00 | 0.00 | 0.00 | 97 | 1015.2 |
| 20260510102956 | 19 | 175 | 0.0 | 0.0 | 0.00 | 0.00 | 0.00 | 97 | 1015.2 |
| 20260510102452 | 19 | 175 | 0.0 | 0.0 | 0.00 | 0.00 | 0.00 | 97 | 1015.0 |
| 20260510101948 | 19 | 175 | 0.0 | 0.0 | 0.00 | 0.00 | 0.00 | 97 | 1014.9 |
| 20260510101446 | 20 | 175 | 0.0 | 0.0 | 0.00 | 0.00 | 0.00 | 97 | 1014.9 |
| 20260510100945 | 20 | 175 | 0.0 | 0.0 | 0.00 | 0.00 | 0.00 | 97 | 1015.1 |
| 20260510100440 | 20 | 175 | 0.0 | 0.0 | 0.00 | 0.00 | 0.00 | 97 | 1014.9 |
| 20260510095937 | 20 | 175 | 0.0 | 0.0 | 0.00 | 0.00 | 0.00 | 97 | 1014.8 |
| 20260510095432 | 20 | 175 | 0.0 | 0.0 | 0.00 | 0.00 | 0.00 | 97 | 1014.8 |
| 20260510094932 | 20 | 175 | 0.0 | 0.0 | 0.00 | 0.00 | 0.00 | 97 | 1014.8 |
| 20260510094426 | 20 | 175 | 0.0 | 0.0 | 0.00 | 0.00 | 0.00 | 97 | 1014.7 |
| 20260510093923 | 20 | 175 | 0.0 | 0.0 | 0.00 | 0.00 | 0.00 | 97 | 1014.6 |
| 20260510093418 | 20 | 175 | 0.0 | 0.0 | 0.00 | 0.00 | 0.00 | 97 | 1014.4 |
| 20260510092915 | 20 | 175 | 0.0 | 0.0 | 0.00 | 0.00 | 0.00 | 97 | 1014.5 |
| 20260510092413 | 20 | 175 | 0.0 | 0.0 | 0.00 | 0.00 | 0.00 | 97 | 1014.4 |
| 20260510091912 | 20 | 175 | 0.0 | 0.0 | 0.00 | 0.00 | 0.00 | 97 | 1014.3 |
| 20260510091410 | 20 | 175 | 0.0 | 0.0 | 0.00 | 0.00 | 0.00 | 97 | 1014.0 |
| 20260510090906 | 20 | 175 | 0.0 | 0.0 | 0.00 | 0.00 | 0.00 | 97 | 1014.2 |
| 20260510090403 | 20 | 175 | 0.0 | 0.0 | 0.00 | 0.00 | 0.00 | 97 | 1014.4 |
| 20260510085859 | 20 | 175 | 0.0 | 0.0 | 0.00 | 0.00 | 0.00 | 97 | 1014.1 |
| 20260510085354 | 20 | 175 | 0.0 | 0.0 | 0.00 | 0.00 | 0.00 | 97 | 1014.1 |
| 20260510084849 | 20 | 175 | 0.0 | 0.0 | 0.00 | 0.00 | 0.00 | 97 | 1014.0 |
| 20260510084347 | 20 | 175 | 0.0 | 0.0 | 0.00 | 0.00 | 0.00 | 97 | 1013.9 |
| 20260510083844 | 20 | 175 | 0.0 | 0.0 | 0.00 | 0.00 | 0.00 | 97 | 1013.6 |
| 20260510083340 | 20 | 175 | 0.0 | 0.0 | 0.00 | 0.00 | 0.00 | 97 | 1013.5 |
| 20260510082836 | 20 | 175 | 0.0 | 0.0 | 0.00 | 0.00 | 0.00 | 97 | 1013.4 |
| 20260510082333 | 20 | 175 | 0.0 | 0.0 | 0.00 | 0.00 | 0.00 | 97 | 1013.4 |
| 20260510081832 | 20 | 150 | 0.0 | 0.0 | 0.00 | 0.00 | 0.00 | 97 | 1013.2 |
| 20260510081328 | 20 | 149 | 0.0 | 0.0 | 0.00 | 0.00 | 0.00 | 97 | 1013.4 |
| 20260510080824 | 20 | 123 | 0.0 | 0.0 | 0.00 | 0.00 | 0.00 | 97 | 1013.4 |
| 20260510080319 | 20 | 142 | 0.0 | 1.6 | 0.00 | 0.00 | 0.00 | 97 | 1013.1 |
| 20260510075817 | 20 | 155 | 0.0 | 0.0 | 0.00 | 0.00 | 0.00 | 97 | 1013.1 |
| 20260510075314 | 20 | 150 | 1.6 | 1.6 | 0.00 | 0.00 | 0.00 | 97 | 1013.2 |
| 20260510074810 | 20 | 149 | 0.0 | 0.0 | 0.00 | 0.00 | 0.00 | 97 | 1013.1 |
| 20260510074308 | 20 | 155 | 0.0 | 0.0 | 0.00 | 0.00 | 0.00 | 97 | 1013.5 |
| 20260510073803 | 20 | 166 | 0.0 | 0.0 | 0.00 | 0.00 | 0.00 | 97 | 1013.5 |
| 20260510073300 | 20 | 152 | 0.0 | 0.0 | 0.00 | 0.00 | 0.00 | 97 | 1013.5 |
| 20260510072755 | 20 | 156 | 0.0 | 0.0 | 0.00 | 0.00 | 0.00 | 97 | 1013.6 |
| 20260510072252 | 20 | 156 | 0.0 | 0.0 | 0.00 | 0.00 | 0.00 | 97 | 1013.7 |
| 20260510071748 | 20 | 156 | 0.0 | 0.0 | 0.00 | 0.00 | 0.00 | 97 | 1013.8 |
| 20260510071245 | 20 | 156 | 0.0 | 0.0 | 0.00 | 0.00 | 0.00 | 97 | 1013.7 |
| 20260510070744 | 20 | 156 | 0.0 | 0.0 | 0.00 | 0.00 | 0.00 | 97 | 1013.4 |
| 20260510070241 | 20 | 156 | 0.0 | 0.0 | 0.00 | 0.00 | 0.00 | 97 | 1013.7 |
| 20260510065741 | 20 | 156 | 0.0 | 0.0 | 0.00 | 0.00 | 0.00 | 97 | 1013.4 |
| 20260510065237 | 20 | 156 | 0.0 | 0.0 | 0.00 | 0.00 | 0.00 | 97 | 1013.6 |
| 20260510064734 | 20 | 156 | 0.0 | 0.0 | 0.00 | 0.00 | 0.00 | 97 | 1013.5 |
| 20260510064232 | 20 | 157 | 0.0 | 0.0 | 0.00 | 0.00 | 0.00 | 97 | 1013.6 |
| 20260510063728 | 20 | 157 | 0.0 | 0.0 | 0.00 | 0.00 | 0.00 | 97 | 1013.7 |
| 20260510063225 | 20 | 156 | 0.0 | 0.0 | 0.00 | 0.00 | 0.00 | 97 | 1013.6 |
| 20260510062721 | 20 | 156 | 0.0 | 0.0 | 0.00 | 0.00 | 0.00 | 97 | 1013.7 |
| 20260510062217 | 20 | 144 | 1.6 | 1.6 | 0.00 | 0.00 | 0.00 | 97 | 1013.8 |
| 20260510061712 | 20 | 169 | 0.0 | 0.0 | 0.00 | 0.00 | 0.00 | 97 | 1014.1 |
| 20260510061210 | 20 | 169 | 0.0 | 0.0 | 0.00 | 0.00 | 0.00 | 96 | 1014.1 |
| 20260510060706 | 20 | 169 | 0.0 | 0.0 | 0.00 | 0.00 | 0.00 | 96 | 1014.3 |
| 20260510060203 | 20 | 169 | 0.0 | 0.0 | 0.00 | 0.00 | 0.00 | 96 | 1014.4 |
| 20260510055659 | 20 | 170 | 0.0 | 0.0 | 0.00 | 0.00 | 0.00 | 96 | 1014.4 |
| 20260510055157 | 20 | 170 | 0.0 | 0.0 | 0.00 | 0.00 | 0.00 | 96 | 1014.3 |
| 20260510054653 | 20 | 170 | 0.0 | 0.0 | 0.00 | 0.00 | 0.00 | 96 | 1014.3 |
| 20260510054149 | 20 | 170 | 0.0 | 0.0 | 0.00 | 0.00 | 0.00 | 96 | 1014.2 |
| 20260510053648 | 20 | 170 | 0.0 | 0.0 | 0.00 | 0.00 | 0.00 | 96 | 1014.0 |
| 20260510053145 | 20 | 172 | 1.6 | 1.6 | 0.00 | 0.00 | 0.00 | 96 | 1013.8 |
| 20260510052640 | 20 | 166 | 0.0 | 0.0 | 0.00 | 0.00 | 0.00 | 96 | 1013.8 |
| 20260510052137 | 20 | 166 | 0.0 | 0.0 | 0.00 | 0.00 | 0.00 | 96 | 1013.8 |
| 20260510051633 | 20 | 142 | 0.0 | 0.0 | 0.00 | 0.00 | 0.00 | 96 | 1013.5 |
| 20260510051129 | 20 | 145 | 0.0 | 0.0 | 0.00 | 0.00 | 0.00 | 96 | 1013.9 |
| 20260510050627 | 20 | 143 | 0.0 | 0.0 | 0.00 | 0.00 | 0.00 | 96 | 1013.8 |
| 20260510050124 | 20 | 147 | 0.0 | 0.0 | 0.00 | 0.00 | 0.00 | 96 | 1014.0 |
| 20260510045621 | 20 | 147 | 0.0 | 0.0 | 0.00 | 1.42 | 1.42 | 96 | 1013.9 |
| 20260510045117 | 20 | 147 | 0.0 | 0.0 | 0.00 | 1.42 | 1.42 | 96 | 1014.4 |
| 20260510044613 | 20 | 147 | 0.0 | 0.0 | 0.00 | 1.42 | 1.42 | 96 | 1014.3 |
| 20260510044111 | 20 | 147 | 0.0 | 0.0 | 0.00 | 1.42 | 1.42 | 96 | 1014.6 |
| 20260510043606 | 20 | 147 | 0.0 | 0.0 | 0.00 | 1.42 | 1.42 | 96 | 1014.4 |
| 20260510043103 | 20 | 147 | 0.0 | 0.0 | 0.00 | 1.42 | 1.42 | 96 | 1014.5 |
| 20260510042601 | 21 | 147 | 0.0 | 0.0 | 0.00 | 1.42 | 1.42 | 96 | 1014.4 |
| 20260510042056 | 21 | 147 | 0.0 | 0.0 | 0.00 | 1.42 | 1.42 | 96 | 1014.5 |
| 20260510041554 | 21 | 147 | 0.0 | 0.0 | 0.18 | 1.42 | 1.42 | 95 | 1014.7 |
| 20260510041051 | 21 | 147 | 0.0 | 0.0 | 0.18 | 1.42 | 1.42 | 95 | 1014.9 |
| 20260510040548 | 21 | 147 | 0.0 | 0.0 | 0.18 | 1.42 | 1.42 | 95 | 1014.8 |
| 20260510040044 | 21 | 147 | 0.0 | 0.0 | 0.00 | 1.40 | 1.40 | 95 | 1014.9 |
| 20260510035540 | 21 | 147 | 0.0 | 0.0 | 0.00 | 1.40 | 1.40 | 95 | 1014.8 |
| 20260510035040 | 21 | 147 | 0.0 | 0.0 | 0.00 | 1.40 | 1.40 | 95 | 1014.8 |
| 20260510034538 | 21 | 147 | 0.0 | 0.0 | 0.00 | 1.40 | 1.40 | 95 | 1014.9 |
| 20260510034035 | 21 | 147 | 0.0 | 0.0 | 0.00 | 1.40 | 1.40 | 95 | 1014.5 |
| 20260510033530 | 21 | 147 | 0.0 | 0.0 | 0.00 | 1.40 | 1.40 | 95 | 1014.6 |
| 20260510033029 | 21 | 147 | 0.0 | 0.0 | 0.00 | 1.40 | 1.40 | 95 | 1014.4 |
| 20260510032525 | 21 | 147 | 0.0 | 0.0 | 0.00 | 1.40 | 1.40 | 95 | 1014.6 |
| 20260510032020 | 21 | 148 | 0.0 | 0.0 | 0.00 | 1.40 | 1.40 | 95 | 1014.7 |
| 20260510031515 | 21 | 150 | 0.0 | 0.0 | 0.00 | 1.40 | 1.40 | 94 | 1014.7 |
| 20260510031012 | 21 | 150 | 0.0 | 0.0 | 0.00 | 1.40 | 1.40 | 94 | 1014.5 |
| 20260510030508 | 21 | 150 | 0.0 | 0.0 | 0.00 | 1.40 | 1.40 | 94 | 1014.1 |
| 20260510030005 | 21 | 149 | 0.0 | 0.0 | 0.00 | 1.40 | 1.40 | 94 | 1014.2 |
| 20260510025502 | 21 | 150 | 0.0 | 0.0 | 0.00 | 1.40 | 1.40 | 94 | 1013.8 |
| 20260510025000 | 21 | 168 | 0.0 | 0.0 | 0.00 | 1.40 | 1.40 | 94 | 1014.2 |
| 20260510024456 | 21 | 169 | 0.0 | 0.0 | 0.00 | 1.40 | 1.40 | 94 | 1014.0 |
| 20260510023952 | 21 | 146 | 0.0 | 0.0 | 0.00 | 1.40 | 1.40 | 94 | 1013.9 |
| 20260510023448 | 21 | 144 | 0.0 | 0.0 | 0.00 | 1.40 | 1.40 | 94 | 1014.0 |
| 20260510022945 | 21 | 171 | 1.6 | 1.6 | 0.00 | 1.40 | 1.40 | 93 | 1014.0 |
| 20260510022444 | 21 | 164 | 1.6 | 3.2 | 0.00 | 1.40 | 1.40 | 93 | 1014.1 |
| 20260510021944 | 21 | 165 | 0.0 | 0.0 | 0.00 | 1.40 | 1.40 | 93 | 1014.2 |
| 20260510021442 | 21 | 168 | 1.6 | 1.6 | 0.00 | 1.40 | 1.40 | 93 | 1014.0 |
| 20260510020938 | 21 | 154 | 0.0 | 1.6 | 0.00 | 1.40 | 1.40 | 93 | 1014.0 |
| 20260510020438 | 21 | 168 | 0.0 | 1.6 | 0.00 | 1.40 | 1.40 | 92 | 1014.1 |
| 20260510015935 | 21 | 157 | 0.0 | 1.6 | 0.00 | 1.40 | 1.40 | 92 | 1014.3 |
| 20260510015431 | 21 | 156 | 0.0 | 0.0 | 0.00 | 1.40 | 1.40 | 92 | 1014.5 |
| 20260510014926 | 21 | 157 | 0.0 | 0.0 | 0.00 | 1.40 | 1.40 | 92 | 1014.5 |
| 20260510014424 | 21 | 167 | 0.0 | 1.6 | 0.00 | 1.40 | 1.40 | 93 | 1014.3 |
| 20260510013920 | 21 | 183 | 0.0 | 0.0 | 0.00 | 1.40 | 1.40 | 93 | 1014.4 |
| 20260510013415 | 21 | 161 | 1.6 | 3.2 | 0.00 | 1.40 | 1.40 | 93 | 1014.6 |
| 20260510012910 | 21 | 160 | 0.0 | 1.6 | 0.00 | 1.40 | 1.40 | 93 | 1014.4 |
| 20260510012405 | 21 | 170 | 0.0 | 1.6 | 0.00 | 1.40 | 1.40 | 93 | 1014.4 |
| 20260510011900 | 21 | 174 | 0.0 | 0.0 | 0.00 | 1.40 | 1.40 | 93 | 1014.5 |
| 20260510011355 | 21 | 174 | 0.0 | 1.6 | 0.00 | 1.40 | 1.40 | 93 | 1014.5 |
| 20260510010852 | 21 | 176 | 0.0 | 0.0 | 0.00 | 1.40 | 1.40 | 93 | 1014.3 |
| 20260510010349 | 21 | 157 | 0.0 | 0.0 | 0.00 | 1.40 | 1.40 | 93 | 1013.9 |
| 20260510005846 | 21 | 163 | 1.6 | 1.6 | 0.00 | 1.40 | 1.40 | 93 | 1013.8 |
| 20260510005342 | 21 | 148 | 1.6 | 1.6 | 0.00 | 1.40 | 1.40 | 93 | 1013.6 |
| 20260510004840 | 21 | 160 | 0.0 | 0.0 | 0.00 | 1.40 | 1.40 | 92 | 1013.7 |
| 20260510004337 | 21 | 129 | 0.0 | 1.6 | 0.13 | 1.40 | 1.40 | 92 | 1013.5 |
| 20260510003835 | 21 | 153 | 0.0 | 1.6 | 0.13 | 1.40 | 1.40 | 92 | 1013.5 |
| 20260510003332 | 21 | 152 | 1.6 | 1.6 | 0.00 | 1.37 | 1.37 | 92 | 1013.5 |
| 20260510002830 | 21 | 161 | 1.6 | 3.2 | 0.00 | 1.37 | 1.37 | 93 | 1013.6 |
| 20260510002328 | 21 | 166 | 0.0 | 0.0 | 0.00 | 1.37 | 1.37 | 94 | 1013.4 |
| 20260510001824 | 21 | 181 | 3.2 | 3.2 | 0.00 | 1.37 | 1.37 | 94 | 1013.3 |
| 20260510001323 | 21 | 139 | 1.6 | 3.2 | 0.00 | 1.37 | 1.37 | 94 | 1013.4 |
| 20260510000818 | 20 | 172 | 1.6 | 1.6 | 0.00 | 1.37 | 1.37 | 94 | 1013.3 |
| 20260510000318 | 21 | 148 | 0.0 | 0.0 | 0.00 | 1.37 | 1.37 | 94 | 1013.5 |
| 20260509235813 | 21 | 148 | 0.0 | 0.0 | 0.00 | 1.37 | 1.37 | 94 | 1013.6 |
| 20260509235309 | 21 | 148 | 0.0 | 0.0 | 0.00 | 1.37 | 1.37 | 94 | 1013.6 |
| 20260509234805 | 21 | 148 | 0.0 | 0.0 | 0.00 | 1.37 | 1.37 | 94 | 1013.6 |
| 20260509234302 | 21 | 149 | 0.0 | 1.6 | 0.00 | 1.37 | 1.37 | 94 | 1013.4 |
| 20260509233800 | 21 | 148 | 0.0 | 0.0 | 0.00 | 1.37 | 1.37 | 94 | 1013.4 |
| 20260509233258 | 21 | 148 | 0.0 | 0.0 | 0.00 | 1.37 | 1.37 | 93 | 1013.2 |
| 20260509232753 | 21 | 147 | 0.0 | 1.6 | 0.00 | 1.37 | 1.37 | 93 | 1013.2 |
| 20260509232251 | 21 | 149 | 0.0 | 0.0 | 0.00 | 1.37 | 1.37 | 93 | 1013.5 |
| 20260509231747 | 21 | 149 | 0.0 | 0.0 | 0.00 | 1.37 | 1.37 | 93 | 1013.9 |
| 20260509231244 | 21 | 149 | 0.0 | 0.0 | 0.00 | 1.37 | 1.37 | 93 | 1013.7 |
| 20260509230742 | 21 | 149 | 0.0 | 0.0 | 0.18 | 1.37 | 1.37 | 92 | 1013.8 |